Temp
12 12 12 13 13 13 13 14 14 14 14 14 14 14 14 15 15 15 15 15 15 15 14 14 12 12 12 12 12 13 13 14 15 15 14 14 15 13 13 13 11 12 13 11 9
12 12 12 13 13 13 13 14 14 14 14 14 14 15 15 15 15 15 15 15 15 15 14 13 13 13 13 13 13 13 14 14 15 15 15 15 15 15 14 13 12 12 12 11 10
12 12 12 13 13 13 13 14 14 14 14 14 14 14 15 15 15 15 15 15 15 15 15 13 14 14 14 13 14 13 14 14 15 15 14 15 14 15 15 14 13 14 13 10 10
11 12 13 13 13 13 13 13 14 14 14 14 14 14 14 15 15 15 15 15 15 15 14 13 13 14 13 14 14 14 14 15 15 15 14 15 15 15 14 14 13 13 13 12 10
11 12 12 13 13 13 13 13 13 14 14 14 14 14 14 14 15 15 15 15 15 15 14 13 13 13 13 14 14 14 14 15 15 15 15 15 15 14 14 14 13 14 13 12 11
11 12 12 12 13 13 13 13 13 13 13 14 14 14 14 14 14 15 15 15 15 15 15 14 13 13 14 14 15 15 15 15 15 16 16 15 14 14 13 13 13 13 13 13 10
11 12 12 12 12 12 13 13 13 13 13 13 14 14 14 14 14 14 15 15 15 15 14 13 13 13 14 14 14 15 15 15 14 14 13 14 14 14 14 13 13 13 13 10 10
11 11 12 12 12 12 12 12 12 13 13 14 14 14 14 14 14 13 14 15 15 14 14 14 14 13 14 13 14 15 15 14 13 13 13 14 11 12 12 13 13 12 11 10 10
11 12 12 12 12 12 12 12 12 13 13 13 13 13 13 13 14 13 14 14 14 14 14 15 15 14 14 14 14 14 15 15 14 15 14 10 11 11 12 11 12 11 11 11 11
12 12 12 12 12 12 11 12 12 12 13 12 13 12 12 12 14 14 14 13 13 14 14 15 15 15 14 14 15 15 15 15 15 14 14 12 12 12 12 12 11 12 11 11 11
12 12 12 12 12 12 11 11 11 12 12 13 12 11 11 12 13 13 13 13 13 12 14 14 14 15 15 15 15 15 15 16 15 14 13 14 15 14 13 13 12 12 11 11 12
12 11 12 12 12 11 11 11 11 12 12 12 12 11 11 11 12 12 12 12 12 13 13 13 14 15 15 15 16 16 16 15 14 15 14 13 14 14 12 13 12 12 12 12 12
12 11 11 12 12 12 11 11 11 11 12 12 12 12 10 11 12 12 12 12 11 12 12 12 15 15 15 16 16 16 16 16 16 15 14 15 13 13 12 13 12 13 12 12 12
11 12 11 11 11 11 11 11 11 11 11 12 12 12 11 11 12 12 12 11 11 12 12 13 15 14 15 15 16 16 16 16 15 14 13 15 14 15 14 14 14 14 13 12 12
11 11 11 11 11 11 11 11 12 11 9 12 12 12 12 12 12 12 12 11 12 12 12 13 14 14 14 15 16 16 17 16 16 16 15 15 15 16 15 15 15 15 14 13 12
11 11 11 11 11 11 11 11 11 11 11 12 12 12 12 12 12 12 12 12 12 12 12 13 14 14 15 15 16 16 16 15 16 14 15 16 16 16 16 17 17 16 15 14 13
10 11 11 11 11 10 10 11 11 11 12 13 13 12 12 12 12 12 12 12 12 12 13 13 14 14 14 15 15 16 16 15 14 12 12 16 16 16 17 17 17 16 16 15 14
10 11 11 11 10 10 10 11 11 12 12 12 13 12 12 12 12 12 12 12 12 12 12 13 14 14 14 15 15 15 15 15 13 10 14 16 16 17 18 18 18 17 17 16 16
10 10 11 11 10 10 10 11 11 12 12 12 12 12 12 12 12 12 12 12 12 12 12 13 14 14 14 15 15 15 15 15 15 15 15 16 17 18 18 18 18 17 16 16 16
9 10 10 9 10 10 10 10 12 11 11 12 12 12 13 13 12 12 12 13 13 13 12 12 13 14 15 15 15 15 15 15 15 12 12 15 15 12 17 15 18 17 15 14 15
8 9 9 8 8 8 9 10 11 11 10 11 12 12 12 12 13 13 13 13 13 13 12 13 13 14 14 14 15 14 14 14 15 15 11 10 11 12 12 14 13 14 14 14 15
8 7 8 7 8 8 9 9 9 11 11 10 11 11 12 12 12 12 13 13 13 13 13 13 13 13 13 14 15 14 15 14 14 14 15 15 12 13 12 13 13 13 14 15 15
7 7 7 7 7 7 8 8 7 9 10 10 10 11 11 11 11 12 13 13 13 13 13 13 13 13 14 14 14 14 14 14 14 14 15 13 12 12 13 12 14 14 13 13 14
7 7 7 6 7 7 6 7 8 8 9 9 9 11 11 11 11 11 12 12 12 12 12 13 12 12 12 11 11 12 13 13 14 14 15 14 14 12 12 11 12 11 12 12 12
6 6 6 6 6 6 6 7 7 8 9 9 10 10 10 10 11 11 11 11 11 11 12 12 12 12 11 12 11 11 12 13 14 14 14 13 13 12 11 12 10 10 10 9 11
4 5 5 7 6 6 6 6 6 7 7 8 8 9 10 10 10 10 10 11 11 11 11 11 11 11 10 11 11 11 12 12 14 14 14 12 13 12 12 11 10 11 11 10 10
4 4 4 5 5 5 6 5 6 6 7 7 7 8 9 9 9 9 10 10 10 10 10 10 10 9 10 10 11 11 11 11 12 12 13 12 12 12 12 11 11 10 10 9 10
Height
3152 3152 3151 3150 3150 3149 3149 3149 3149 3149 3150 3150 3152 3153 3154 3156 3158 3162 3165 3168 3169 3171 3174 3175 3174 3174 3177 3176 3179 3178 3177 3177 3179 3182 3180 3181 3182 3185 3186 3184 3185 3184 3182 3182 3182
3152 3151 3150 3149 3148 3148 3148 3148 3148 3147 3147 3148 3149 3150 3153 3155 3158 3161 3164 3166 3169 3171 3173 3174 3174 3175 3176 3176 3177 3177 3177 3179 3182 3183 3182 3182 3181 3184 3185 3185 3185 3184 3184 3183 3184
3151 3150 3150 3149 3148 3147 3147 3146 3146 3146 3146 3146 3147 3149 3151 3154 3158 3159 3161 3165 3168 3171 3173 3175 3175 3176 3177 3175 3173 3178 3180 3182 3185 3186 3186 3182 3181 3182 3185 3185 3186 3185 3184 3183 3185
3151 3149 3148 3147 3147 3146 3146 3146 3145 3145 3145 3145 3145 3146 3149 3153 3159 3158 3160 3163 3167 3171 3174 3176 3175 3176 3176 3173 3175 3180 3183 3183 3185 3186 3187 3186 3184 3184 3186 3185 3187 3186 3186 3186 3186
3150 3149 3147 3146 3145 3145 3144 3144 3144 3143 3143 3144 3144 3145 3148 3152 3156 3156 3159 3162 3166 3170 3174 3177 3177 3176 3177 3176 3177 3180 3181 3181 3184 3185 3187 3188 3186 3186 3188 3187 3187 3186 3188 3188 3188
3150 3148 3147 3146 3145 3144 3143 3142 3141 3142 3142 3142 3143 3144 3147 3151 3154 3155 3158 3161 3165 3169 3173 3177 3176 3176 3176 3177 3178 3180 3181 3180 3183 3182 3183 3185 3185 3187 3189 3188 3189 3189 3189 3189 3190
3150 3148 3146 3145 3144 3144 3142 3141 3141 3141 3141 3141 3142 3144 3146 3150 3152 3155 3157 3159 3163 3168 3171 3172 3173 3176 3178 3177 3179 3181 3183 3184 3185 3183 3189 3189 3189 3190 3190 3192 3191 3190 3189 3190 3191
3149 3148 3146 3145 3143 3142 3141 3141 3140 3140 3140 3140 3141 3143 3145 3148 3150 3152 3155 3159 3161 3164 3168 3172 3173 3176 3179 3180 3181 3182 3181 3186 3186 3186 3187 3189 3190 3191 3192 3194 3192 3191 3191 3191 3192
3148 3146 3145 3143 3142 3141 3140 3139 3139 3139 3139 3140 3141 3143 3146 3147 3148 3151 3153 3157 3160 3162 3165 3169 3173 3176 3178 3179 3180 3181 3180 3182 3186 3187 3185 3192 3191 3191 3190 3192 3194 3194 3193 3192 3193
3148 3146 3144 3143 3141 3140 3139 3139 3138 3138 3138 3139 3140 3144 3145 3146 3147 3150 3152 3154 3158 3161 3164 3166 3171 3174 3175 3177 3177 3177 3179 3182 3182 3184 3183 3189 3192 3192 3190 3192 3193 3193 3194 3194 3194
3146 3145 3143 3142 3140 3139 3139 3139 3141 3140 3138 3138 3140 3141 3141 3145 3145 3147 3151 3153 3156 3159 3162 3164 3167 3169 3173 3175 3177 3178 3180 3181 3182 3181 3184 3184 3185 3186 3187 3187 3190 3192 3194 3195 3195
3146 3144 3142 3140 3139 3138 3138 3138 3137 3138 3138 3139 3139 3140 3140 3142 3145 3146 3149 3152 3154 3157 3160 3163 3162 3167 3171 3173 3175 3177 3177 3179 3183 3183 3184 3185 3184 3181 3181 3183 3186 3190 3192 3194 3195
3145 3143 3141 3139 3138 3138 3137 3137 3136 3136 3136 3137 3139 3141 3140 3143 3144 3145 3148 3149 3153 3156 3158 3160 3163 3166 3168 3170 3172 3173 3175 3176 3175 3180 3182 3182 3183 3179 3179 3179 3184 3188 3190 3192 3193
3142 3141 3140 3138 3139 3137 3137 3137 3136 3134 3136 3138 3139 3139 3140 3142 3143 3145 3147 3150 3152 3155 3158 3160 3161 3162 3165 3167 3170 3170 3173 3175 3175 3177 3181 3180 3179 3177 3178 3179 3179 3182 3185 3188 3189
3140 3139 3138 3136 3136 3135 3136 3134 3134 3136 3137 3139 3138 3139 3140 3143 3144 3145 3147 3149 3151 3152 3157 3157 3158 3161 3162 3164 3167 3168 3168 3171 3172 3172 3176 3177 3177 3173 3175 3175 3174 3177 3180 3184 3188
3138 3137 3135 3135 3134 3134 3134 3134 3136 3138 3136 3136 3138 3137 3139 3141 3142 3145 3147 3150 3152 3151 3151 3151 3153 3156 3158 3162 3163 3165 3168 3170 3171 3171 3172 3172 3174 3168 3168 3168 3171 3174 3174 3181 3184
3136 3134 3133 3133 3133 3132 3133 3135 3137 3134 3137 3137 3136 3136 3137 3140 3142 3144 3146 3148 3149 3150 3148 3149 3149 3152 3155 3156 3159 3161 3164 3166 3169 3170 3168 3168 3169 3165 3164 3163 3165 3168 3171 3176 3180
3133 3132 3131 3131 3130 3130 3132 3135 3134 3134 3136 3134 3134 3136 3136 3138 3141 3143 3144 3145 3147 3148 3148 3148 3148 3150 3151 3153 3155 3158 3160 3163 3168 3171 3165 3164 3161 3158 3161 3158 3161 3163 3165 3169 3172
3130 3128 3128 3128 3128 3129 3131 3132 3131 3133 3134 3132 3134 3135 3136 3137 3139 3141 3142 3142 3142 3145 3147 3146 3144 3144 3147 3151 3154 3155 3157 3162 3162 3163 3164 3160 3158 3156 3151 3149 3153 3156 3159 3164 3170
3128 3126 3126 3125 3126 3126 3128 3128 3129 3130 3132 3131 3133 3135 3134 3135 3137 3138 3140 3139 3140 3141 3144 3145 3145 3142 3143 3148 3151 3152 3157 3158 3158 3162 3163 3158 3157 3151 3145 3146 3146 3150 3157 3161 3169
3125 3124 3125 3125 3125 3125 3125 3125 3126 3129 3130 3130 3131 3130 3131 3132 3133 3132 3135 3137 3137 3138 3139 3142 3143 3141 3136 3140 3146 3150 3151 3154 3155 3156 3157 3161 3158 3155 3150 3146 3146 3149 3155 3163 3169
3122 3123 3122 3121 3122 3121 3121 3122 3123 3124 3125 3125 3126 3127 3126 3127 3127 3128 3127 3129 3131 3135 3137 3139 3139 3139 3139 3140 3144 3146 3148 3150 3151 3154 3153 3155 3159 3156 3155 3149 3147 3150 3156 3159 3162
3119 3119 3118 3118 3117 3118 3118 3117 3118 3117 3120 3121 3122 3122 3122 3123 3125 3122 3122 3124 3126 3129 3133 3135 3136 3138 3138 3140 3141 3141 3144 3146 3147 3149 3150 3153 3157 3154 3157 3155 3154 3153 3158 3160 3163
3116 3115 3114 3114 3115 3115 3112 3112 3112 3114 3114 3116 3116 3117 3117 3118 3120 3120 3118 3119 3121 3124 3128 3132 3133 3135 3138 3139 3140 3139 3139 3139 3142 3144 3146 3148 3152 3152 3154 3155 3152 3157 3159 3160 3164
3109 3108 3107 3108 3108 3108 3109 3109 3108 3109 3110 3110 3109 3112 3113 3113 3113 3115 3115 3114 3117 3120 3124 3127 3129 3132 3134 3137 3137 3136 3135 3135 3137 3141 3144 3145 3148 3150 3153 3153 3158 3158 3160 3160 3163
3101 3101 3100 3102 3102 3102 3103 3104 3104 3105 3105 3104 3106 3105 3108 3109 3110 3111 3112 3112 3113 3117 3119 3122 3125 3128 3130 3134 3136 3134 3135 3131 3133 3135 3137 3141 3145 3148 3149 3149 3152 3152 3153 3157 3166
3092 3093 3092 3094 3094 3095 3098 3096 3095 3097 3099 3100 3100 3101 3102 3105 3107 3105 3108 3110 3112 3114 3116 3119 3122 3125 3127 3130 3132 3133 3134 3133 3132 3132 3134 3135 3140 3145 3149 3150 3149 3150 3149 3160 3172
Wind_Speed
9 8 7 6 5 5 5 5 5 5 5 6 7 8 8 8 8 9 10 11 11 12 10 10 11 11 6 3 5 8 4 5 8 23 24 23 11 9 7 5 5 5 4 15 17
9 9 8 7 6 6 6 5 4 4 4 4 7 8 9 8 8 9 11 11 13 14 12 14 12 12 5 7 6 4 6 4 18 20 28 19 10 6 5 2 1 2 9 14 14
8 8 7 7 6 6 5 5 4 4 4 3 4 9 11 10 9 10 13 13 14 14 13 12 12 8 6 10 14 7 12 16 19 8 25 15 10 6 3 3 1 4 11 14 13
9 8 8 7 6 6 6 5 5 3 3 3 3 7 11 12 8 11 14 16 15 15 14 17 11 11 8 2 18 18 11 4 12 17 18 12 15 13 4 6 4 3 6 13 17
9 8 7 7 7 6 6 5 5 3 3 3 4 6 11 12 9 11 13 15 17 15 15 17 11 8 6 6 14 7 8 7 6 9 17 21 14 18 12 4 1 3 9 12 15
12 10 8 7 7 7 6 5 5 4 3 3 5 6 10 13 14 9 14 15 16 17 17 20 13 6 2 8 9 8 12 8 6 6 17 26 26 18 12 6 4 5 9 11 9
11 11 9 8 8 6 6 6 5 4 4 3 4 6 9 12 11 12 12 16 16 17 20 21 14 6 6 3 8 12 7 9 7 23 21 24 23 13 9 6 5 6 7 10 7
12 12 11 8 8 6 5 6 5 4 3 3 3 6 8 9 11 11 12 17 19 20 22 24 18 14 10 8 13 18 9 8 15 22 18 17 19 19 12 4 3 8 11 10 7
12 12 12 11 8 5 4 3 4 3 2 0 2 2 2 7 10 13 16 18 19 21 23 23 19 17 15 10 10 12 5 13 12 22 11 5 26 26 19 11 3 11 15 12 12
12 11 11 10 9 6 3 3 3 2 1 4 4 6 2 3 8 12 19 20 22 21 22 22 21 20 19 14 11 13 17 6 14 18 10 16 20 22 20 17 16 12 18 19 15
14 13 10 9 8 6 4 3 4 4 5 6 11 10 6 3 9 14 17 20 18 15 20 18 18 23 23 16 7 1 7 10 7 10 23 22 12 14 22 18 25 21 22 24 17
13 11 10 8 6 6 5 5 5 3 2 5 9 6 5 4 1 14 20 18 16 15 14 14 20 20 26 22 13 10 12 10 6 16 4 3 15 16 28 26 26 26 26 27 22
10 10 9 7 5 4 3 2 4 5 3 2 6 8 9 4 2 10 20 17 14 14 11 14 13 13 17 24 16 13 15 16 13 16 14 13 17 16 16 20 34 32 31 28 29
10 10 8 7 4 4 5 2 2 4 3 2 4 3 14 7 6 7 5 17 14 9 9 10 15 10 13 16 14 19 16 16 15 7 17 18 9 17 15 15 29 33 36 35 30
10 10 7 6 4 4 2 2 3 4 2 4 3 2 5 6 2 6 6 16 15 12 6 13 12 11 15 16 15 16 12 17 13 9 11 17 12 15 22 23 19 22 40 37 35
10 10 8 6 4 4 3 5 7 3 1 6 3 2 6 7 8 9 9 5 12 10 12 18 19 15 10 14 13 21 11 13 10 19 12 21 13 14 21 16 18 18 20 32 38
12 12 9 6 4 2 5 8 4 2 8 7 8 5 10 13 9 17 13 9 16 10 13 16 22 17 10 17 15 17 17 1 1 2 7 17 20 26 17 22 21 23 22 18 38
11 10 8 5 6 6 9 12 3 4 2 8 12 7 5 16 11 23 14 11 15 15 8 6 10 15 8 13 18 15 12 5 5 4 9 15 11 21 22 24 25 21 24 18 25
11 10 6 6 8 8 11 14 5 5 9 15 16 14 9 13 14 19 18 15 14 18 13 5 9 16 17 13 16 21 18 17 13 9 5 9 19 22 12 22 26 25 30 27 23
9 8 4 5 6 9 13 19 11 7 9 3 3 11 13 11 20 24 22 10 13 14 17 15 13 13 16 23 21 22 15 12 11 2 4 4 3 20 23 11 24 30 31 30 21
10 7 3 7 5 4 13 18 17 10 5 6 14 13 11 9 15 24 27 15 12 15 14 20 18 6 17 26 21 18 22 15 6 15 6 0 2 10 9 19 30 34 33 27 19
9 3 7 7 10 9 10 11 11 16 8 9 14 18 25 18 15 20 27 19 19 18 17 13 11 7 1 18 16 15 18 20 16 8 3 9 4 4 11 19 25 27 27 27 26
11 5 13 12 15 10 10 11 16 14 11 16 14 15 19 18 15 12 30 25 22 21 19 18 10 5 6 12 19 9 12 18 14 17 13 2 5 12 13 15 14 20 19 22 25
13 6 13 23 18 17 22 16 15 17 18 11 17 21 17 17 15 13 24 27 21 22 22 20 13 16 8 2 7 8 11 14 15 6 12 11 11 16 21 13 14 8 10 12 18
17 15 17 17 27 30 27 22 17 19 19 14 14 19 18 14 19 15 18 22 21 22 23 23 19 18 23 16 9 10 9 8 20 8 5 8 9 18 15 13 9 18 12 5 11
19 22 24 27 24 27 25 24 21 22 16 17 13 16 22 17 14 8 14 20 22 19 16 17 14 20 20 23 14 12 10 7 7 12 12 16 15 12 8 11 11 15 4 6 8
23 23 27 26 27 28 28 24 25 24 26 17 15 18 22 18 19 10 12 18 16 15 15 20 19 13 11 12 21 14 4 9 12 17 14 16 14 13 12 8 6 4 5 4 5
Wind_Direction
342 339 341 343 334 327 326 328 318 302 282 257 240 225 215 203 195 185 192 174 166 156 137 128 140 161 147 333 321 130 259 80 123 147 159 159 149 124 59 32 108 48 110 133 143
342 336 335 335 333 327 326 326 323 313 303 267 233 219 219 207 190 178 179 183 179 162 152 141 142 144 72 11 152 107 113 110 120 127 159 166 193 201 177 27 136 165 145 151 154
337 333 332 332 326 320 313 318 318 304 296 289 235 209 204 205 195 184 175 181 182 172 153 149 164 106 31 320 190 171 129 114 143 165 152 163 158 222 214 145 30 126 155 162 163
341 332 333 327 321 316 320 314 314 301 276 253 227 202 196 193 187 193 182 180 182 174 154 138 116 84 31 357 160 157 150 149 136 157 187 192 188 203 222 100 50 110 149 157 159
352 335 322 329 318 316 316 317 307 292 260 231 210 195 191 190 167 187 185 181 179 173 154 136 122 80 20 93 164 155 96 121 159 195 189 174 185 188 194 162 191 159 156 154 134
2 348 329 323 320 325 313 310 303 305 286 244 212 197 189 190 180 154 178 177 181 173 155 144 119 71 107 103 222 103 97 93 98 128 188 185 182 194 181 186 235 188 161 132 110
10 2 352 333 327 331 311 309 297 293 290 267 217 204 192 188 184 189 175 173 176 179 166 168 157 127 146 188 130 162 144 114 111 130 132 147 159 198 178 193 238 166 143 122 137
4 359 358 360 329 332 317 321 317 314 310 279 226 206 205 207 184 189 181 181 179 185 186 187 170 165 155 153 172 174 239 157 160 150 122 149 135 149 156 258 269 161 150 149 183
359 357 354 357 354 347 323 316 315 320 332 252 184 175 185 214 207 190 181 179 185 194 197 197 186 172 175 185 208 218 249 210 213 210 228 237 150 162 173 187 253 173 179 178 201
350 345 345 351 354 358 345 292 302 321 152 139 138 139 112 213 208 189 188 181 187 198 200 203 195 189 191 200 206 235 236 208 195 192 224 171 176 174 181 194 211 192 198 199 227
351 347 332 334 341 349 335 318 330 307 221 169 137 112 92 21 195 183 189 189 186 196 200 207 209 201 183 199 204 278 276 258 184 190 191 220 224 250 204 213 208 201 204 218 239
342 350 343 325 326 335 331 330 318 279 236 222 180 157 158 101 166 173 177 183 190 190 189 194 214 199 200 215 234 258 278 200 155 150 187 206 243 235 221 221 202 212 210 223 235
337 347 348 343 322 301 279 290 306 310 322 298 203 226 162 227 250 188 188 182 192 192 184 208 189 191 206 223 230 262 241 211 214 204 244 243 219 224 220 217 204 230 216 222 235
333 340 343 347 326 320 312 282 229 336 11 129 157 188 199 215 274 154 162 179 184 179 184 230 183 203 204 225 224 263 255 235 193 188 259 219 224 216 208 221 211 221 220 217 225
326 334 331 328 294 264 281 184 177 128 36 100 82 94 146 152 133 180 124 195 177 171 209 227 234 236 244 242 242 249 259 214 226 192 197 222 249 254 220 226 209 214 221 217 223
319 328 318 315 298 284 256 192 160 120 269 155 180 177 193 174 144 182 189 219 189 235 229 224 216 235 228 232 261 239 195 196 261 215 201 234 236 273 214 230 227 208 203 214 218
320 321 316 303 263 239 228 186 170 164 155 216 209 196 214 181 178 191 196 218 213 235 234 236 226 229 260 237 236 208 203 166 261 206 216 239 235 247 248 253 246 220 192 235 225
319 315 307 288 251 227 202 195 190 135 72 262 210 174 208 186 211 190 217 231 233 225 244 254 248 229 218 236 225 215 214 202 191 184 238 244 236 250 261 267 252 234 245 232 210
323 317 301 286 249 223 203 212 177 118 23 15 201 178 184 198 208 209 228 256 267 223 231 227 262 230 242 219 223 220 234 233 245 271 290 277 278 284 295 270 238 220 220 215 220
320 312 316 259 232 214 218 224 206 211 350 334 238 208 222 220 219 235 220 255 244 229 243 246 266 249 235 227 235 229 221 218 215 179 224 254 352 340 316 234 212 202 202 207 219
327 313 166 204 256 243 243 246 241 203 360 352 287 269 261 280 247 237 219 227 239 232 213 222 243 284 212 209 216 220 232 239 236 226 166 258 43 24 87 162 160 174 178 181 185
321 288 256 277 294 295 275 269 255 203 208 301 263 278 266 265 288 246 210 209 221 217 220 224 230 274 194 180 215 239 230 230 242 239 222 230 125 156 143 159 160 159 168 176 190
296 267 219 241 258 299 326 270 279 245 258 296 258 287 257 256 301 261 216 213 211 216 222 229 225 284 255 208 215 206 235 229 238 257 255 169 159 180 188 177 169 169 171 180 192
285 255 203 220 251 269 278 271 271 254 252 276 278 263 250 261 261 284 226 215 211 209 203 225 237 234 233 274 309 299 284 237 232 291 260 236 198 182 186 178 158 154 171 175 183
269 254 223 210 228 238 252 261 271 269 245 257 267 251 251 273 259 261 219 194 189 197 202 214 238 239 246 247 271 300 326 242 242 233 243 159 165 199 184 183 145 140 98 77 200
264 253 246 236 229 237 233 249 259 254 267 267 284 250 253 250 255 271 223 211 203 193 206 217 219 227 240 235 247 287 3 351 204 202 204 153 158 145 161 222 221 242 261 49 29
263 258 256 247 244 251 250 253 253 252 247 253 266 266 246 261 259 269 234 226 224 214 211 213 215 225 243 248 241 269 5 33 115 162 196 176 175 167 164 183 227 297 313 9 31